Flag for Australia Weather past 2 weeks in Launceston, Tasmania, Australia

Now
54 °F

Clear.


Feels Like: 49 °F
Forecast: 43 / 70 °F
Wind: 15 mph from Southeast

Location: Launceston Airport

Current Time: Oct 23, 2014 at 2:31:59 AM

Latest Report: Oct 23, 2014 at 1:30 AM


Visibility: N/A

Pressure: 30.07 "Hg

Humidity: 77%

Dew point: 46 °F

Location of LauncestonLocation

Historic Weather in Launceston — Graph

°F

Launceston temperature yesterday

Maximum temperature yesterday: 73 °F (at 3:00 PM)
Minimum temperature yesterday: 41 °F (at 2:30 AM)
Average temperature yesterday: 56 °F

Past Weeks' High & Low Weather Summary

 TemperatureHumidityPressure
High73 °F (Oct 22, 3:00 PM)100% (Oct 9, 3:00 AM)30.57 "Hg (Oct 9, 3:00 AM)
Low34 °F (Oct 14, 4:00 AM)34% (Oct 14, 4:00 PM)29.62 "Hg (Oct 12, 5:00 PM)
Average51 °F74%30.08 "Hg
* Reported Oct 8 1:00 AM — Oct 23 1:00 AM, Launceston, Weather by CustomWeather, © 2014

Note: Actual official high and low records may vary slightly from our data, if they occured in-between our weather recording intervals... More about our weather records

Advertising

Launceston weather history for previous 24 hours

 ConditionsComfort  
Time TempWeatherWind HumidityBarometerVisibility
1:00 AM
Oct 23
54 °FClear.14 mph77%30.07 "HgN/A
12:30 AM55 °FClear.15 mph72%30.07 "HgN/A
12:00 AM54 °FClear.12 mph82%30.04 "HgN/A
11:30 PM
Oct 22
54 °FClear.8 mph88%30.04 "HgN/A
11:00 PM52 °FClear.5 mph88%30.04 "HgN/A
10:30 PM52 °FClear.5 mph88%30.01 "HgN/A
10:00 PM55 °FClear.2 mph82%30.04 "HgN/A
9:30 PM57 °FClear.13 mph72%30.01 "HgN/A
9:00 PM59 °FClear.9 mph68%30.01 "HgN/A
8:30 PM63 °FClear.14 mph59%30.01 "HgN/A
8:00 PM61 °FClear.10 mph63%29.95 "HgN/A
7:30 PM61 °FSunny.9 mph68%29.95 "HgN/A
7:00 PM63 °FSunny.12 mph64%29.95 "HgN/A
6:30 PM64 °FDrizzle. Partly sunny.15 mph56%29.98 "HgN/A
6:00 PM68 °FSunny.14 mph53%29.98 "HgN/A
5:30 PM66 °FPartly sunny.15 mph60%29.95 "HgN/A
5:00 PM68 °FSunny.17 mph56%29.98 "HgN/A
4:30 PM72 °FSunny.18 mph47%29.98 "HgN/A
4:00 PM72 °FSunny.17 mph50%29.98 "HgN/A
3:30 PM72 °FSunny.17 mph50%29.98 "HgN/A
3:00 PM73 °FSunny.18 mph47%29.98 "HgN/A
2:30 PM72 °FSunny.18 mph50%30.01 "HgN/A
2:00 PM72 °FSunny.18 mph47%30.01 "HgN/A
1:30 PM70 °FSunny.15 mph53%30.04 "HgN/A
1:00 PM68 °FSunny.15 mph56%30.04 "HgN/A
12:30 PM66 °FSunny.14 mph60%30.07 "HgN/A
12:00 PM66 °FSunny.13 mph60%30.09 "HgN/A
11:30 AM64 °FSunny.13 mph60%30.12 "HgN/A
11:00 AM63 °FSunny.10 mph64%30.12 "HgN/A
10:30 AM63 °FSunny.12 mph64%30.15 "HgN/A
10:00 AM61 °FSunny.9 mph63%30.15 "HgN/A
9:30 AM57 °FSunny.6 mph72%30.15 "HgN/A
9:00 AM55 °FScattered clouds.1 mph77%30.18 "HgN/A
8:30 AM54 °FPartly sunny.3 mph72%30.18 "HgN/A
8:00 AM50 °FScattered clouds.3 mph76%30.18 "HgN/A
7:30 AM50 °FPartly sunny.No wind82%30.18 "HgN/A
7:00 AM46 °FPartly sunny.No wind87%30.21 "HgN/A
6:30 AM41 °FScattered clouds.3 mph93%30.21 "HgN/A
6:00 AM43 °FPassing clouds.1 mph87%30.21 "HgN/A
5:30 AM41 °FClear.1 mph87%30.21 "HgN/A
5:00 AM41 °FPassing clouds.1 mph87%30.21 "HgN/A
4:30 AM43 °FPassing clouds.No wind87%30.24 "HgN/A
4:00 AM43 °FPassing clouds.No wind87%30.24 "HgN/A
3:30 AM41 °FPassing clouds.6 mph87%30.27 "HgN/A
3:00 AM45 °FPassing clouds.5 mph87%30.27 "HgN/A
2:30 AM41 °FOvercast.3 mph93%30.30 "HgN/A
2:00 AM45 °FPassing clouds.1 mph81%30.30 "HgN/A
Weather by CustomWeather, © 2014

See weather overviewHow to use our weather pages